This demonstration page uses our WeatherBlox Daily Observations layout. Learn more.

Hourly Observations for August 5, 2018

Temp ( °F °C ) Dew Point ( °F °C ) Humidity (%) Winds ( mph kmh ) Pressure ( in mb ) Visibility ( mi km ) Precip ( " mm )
12:15 am 00:15 Clear 75 23.8 69 20.5 82 82 S 8 13 29.83 1010 10 16.09344 0 0
12:35 am 00:35 Clear 74 23.4 69 20.5 84 84 S 7 11 29.83 1010 10 16.09344 0 0
12:55 am 00:55 Clear 74 23.2 69 20.5 85 85 SSE 6 9 29.83 1010 10 16.09344 0 0
1:15 am 01:15 Clear 75 23.7 68 20.1 80 80 S 7 11 29.8 1009 10 16.09344 0 0
1:35 am 01:35 Clear 75 23.7 68 20 80 80 S 10 17 29.8 1009 10 16.09344 0 0
1:55 am 01:55 Clear 75 23.7 67 19.6 78 78 S 13 20 29.8 1009 10 16.09344 0 0
2:15 am 02:15 Clear 76 24.2 67 19.2 74 74 S 14 22 29.8 1009 10 16.09344 0 0
2:35 am 02:35 Clear 76 24.2 66 19 73 73 SSW 14 22 29.8 1009 10 16.09344 0 0
2:55 am 02:55 Clear 75 23.9 66 18.8 73 73 SSW 8 13 29.8 1009 10 16.09344 0 0
3:15 am 03:15 Clear 74 23.6 66 18.8 75 75 SW 5 7 29.83 1010 10 16.09344 0 0
3:35 am 03:35 Clear 74 23.2 66 18.7 76 76 SSW 7 11 29.83 1010 10 16.09344 0 0
3:55 am 03:55 Clear 73 22.8 66 18.7 78 78 SSW 6 9 29.83 1010 10 16.09344 0 0
4:15 am 04:15 Clear 72 22.3 65 18.5 79 79 SSW 8 13 29.85 1011 10 16.09344 0 0
4:35 am 04:35 Clear 72 22.2 65 18.3 79 79 SSW 6 9 29.85 1011 10 16.09344 0 0
4:55 am 04:55 Clear 71 21.9 65 18.5 81 81 S 5 7 29.85 1011 10 16.09344 0 0
5:15 am 05:15 Clear 71 21.9 65 18.2 80 80 S 7 11 29.85 1011 10 16.09344 0 0
5:35 am 05:35 Clear 71 21.5 65 18.2 82 82 S 3 6 29.83 1010 10 16.09344 0 0
5:55 am 05:55 Clear 69 20.8 65 18.3 86 86 SSE 3 6 29.83 1010 10 16.09344 0 0
6:15 am 06:15 Clear 69 20.5 65 18.5 88 88 SSE 6 9 29.83 1010 10 16.09344 0 0
6:35 am 06:35 Clear with Nearby Thunderstorms 69 20.3 65 18.2 88 88 SSE 6 9 29.83 1010 10 16.09344 0 0
6:55 am 06:55 Sunny 68 20.2 65 18.2 88 88 SSE 6 9 29.83 1010 10 16.09344 0 0
7:15 am 07:15 Sunny 67 19.7 65 18.5 93 93 SE 3 6 29.85 1011 10 16.09344 0 0
7:35 am 07:35 Sunny 68 19.9 65 18.5 92 92 SE 7 11 29.85 1011 10 16.09344 0 0
7:55 am 07:55 Sunny 68 20.2 65 18.5 90 90 SSE 7 11 29.85 1011 10 16.09344 0 0
8:15 am 08:15 Sunny 69 20.8 65 18.3 86 86 S 8 13 29.85 1011 10 16.09344 0 0
8:35 am 08:35 Sunny 71 21.4 65 18.1 82 82 SSE 8 13 29.85 1011 10 16.09344 0 0
8:55 am 08:55 Sunny 71 21.5 64 17.8 80 80 S 10 17 29.85 1011 10 16.09344 0 0
9:15 am 09:15 Sunny 71 21.7 65 18.2 81 81 S 9 15 29.85 1011 10 16.09344 0 0
9:35 am 09:35 Sunny 71 21.6 65 18.2 81 81 SSE 10 17 29.85 1011 10 16.09344 0 0
9:55 am 09:55 Sunny 71 21.8 65 18.2 80 80 SSE 9 15 29.85 1011 10 16.09344 0 0
10:15 am 10:15 Sunny 71 21.8 65 18.4 81 81 SSE 9 15 29.85 1011 10 16.09344 0 0
10:35 am 10:35 Sunny 73 22.5 65 18.5 78 78 SSW 7 11 29.83 1010 10 16.09344 0 0
10:55 am 10:55 Sunny 74 23.2 65 18.1 73 73 SSW 7 11 29.85 1011 10 16.09344 0 0
11:15 am 11:15 Sunny 74 23.3 65 18.5 75 75 SSE 6 9 29.85 1011 10 16.09344 0 0
11:35 am 11:35 Sunny 74 23.3 65 18.3 74 74 S 8 13 29.85 1011 10 16.09344 0 0
11:55 am 11:55 Sunny 75 23.7 65 18.3 72 72 SSE 9 15 29.85 1011 10 16.09344 0 0
12:15 pm 12:15 Sunny 75 23.9 66 18.8 73 73 SSE 8 13 29.83 1010 10 16.09344 0 0
12:35 pm 12:35 Sunny 76 24.5 66 19 72 72 SSE 8 13 29.83 1010 10 16.09344 0 0
12:55 pm 12:55 Sunny 76 24.7 66 19 71 71 SSE 5 7 29.85 1011 10 16.09344 0 0
1:15 pm 13:15 Sunny with Nearby Thunderstorms 77 24.9 67 19.6 72 72 Calm 29.85 1011 10 16.09344 0 0
1:35 pm 13:35 Sunny 78 25.5 67 19.7 70 70 SSW 3 6 29.85 1011 10 16.09344 0 0
1:55 pm 13:55 Sunny with Nearby Thunderstorms 81 27.3 67 19.6 63 63 SSW 13 20 29.83 1010 10 16.09344 0 0
2:15 pm 14:15 Sunny 79 25.9 67 19.5 68 68 W 6 9 29.88 1012 10 16.09344 0 0
2:35 pm 14:35 Sunny 78 25.3 68 20.2 73 73 Calm 29.85 1011 10 16.09344 0 0
2:55 pm 14:55 Sunny 77 25.2 71 21.6 81 81 NE 5 7 29.85 1011 10 16.09344 0 0
3:15 pm 15:15 Sunny 77 25.1 71 21.8 82 82 E 8 13 29.83 1010 10 16.09344 0 0
3:35 pm 15:35 Sunny 76 24.6 71 21.7 84 84 Calm 29.88 1012 10 16.09344 0 0
3:55 pm 15:55 Sunny 76 24.7 70 21.3 81 81 Calm 29.88 1012 10 16.09344 0 0
4:15 pm 16:15 Partly Cloudy 76 24.5 71 21.6 84 84 E 7 11 29.85 1011 10 16.09344 0 0
4:35 pm 16:35 Partly Cloudy 77 25.1 71 21.7 81 81 ESE 9 15 29.8 1009 10 16.09344 0 0
4:55 pm 16:55 Sunny 80 26.7 71 21.9 75 75 E 8 13 29.77 1008 10 16.09344 0 0
5:15 pm 17:15 Sunny 81 27.4 71 21.8 72 72 SE 7 11 29.8 1009 10 16.09344 0 0
5:35 pm 17:35 Sunny 82 27.8 71 21.9 70 70 ESE 7 11 29.77 1008 10 16.09344 0 0
5:55 pm 17:55 Sunny 81 27.3 71 21.8 72 72 SE 8 13 29.77 1008 10 16.09344 0 0
6:15 pm 18:15 Sunny 80 26.8 73 22.5 77 77 NE 5 7 29.77 1008 10 16.09344 0 0
6:35 pm 18:35 Sunny 79 26.2 74 23.2 84 84 N 5 7 29.8 1009 10 16.09344 0 0
6:55 pm 18:55 Sunny 78 25.8 74 23.2 86 86 N 7 11 29.83 1010 10 16.09344 0 0
7:15 pm 19:15 Sunny 78 25.3 73 23 87 87 NNE 8 13 29.85 1011 10 16.09344 0 0
7:35 pm 19:35 Sunny 77 25.1 73 22.7 87 87 NNE 6 9 29.85 1011 10 16.09344 0 0
7:55 pm 19:55 Sunny 76 24.7 73 22.6 88 88 NNE 6 9 29.85 1011 10 16.09344 0 0
8:15 pm 20:15 Partly Cloudy 76 24.4 73 22.6 90 90 N 7 11 29.85 1011 10 16.09344 0 0
8:35 pm 20:35 Partly Cloudy 75 23.7 72 22.1 91 91 NNE 9 15 29.85 1011 10 16.09344 0 0
8:55 pm 20:55 Clear 74 23.2 71 21.5 90 90 NE 9 15 29.83 1010 10 16.09344 0 0
9:15 pm 21:15 Clear 73 22.8 71 21.5 92 92 NE 6 9 29.85 1011 10 16.09344 0 0
9:35 pm 21:35 Clear 73 22.5 70 21.3 93 93 NE 7 11 29.88 1012 10 16.09344 0 0
9:55 pm 21:55 Partly Cloudy 72 22.2 70 21.3 95 95 ENE 3 6 29.91 1013 10 16.09344 0 0
10:15 pm 22:15 Partly Cloudy 72 22.2 70 21.2 94 94 ESE 3 6 29.91 1013 10 16.09344 0 0
10:35 pm 22:35 Clear 72 22 70 21.2 95 95 SSE 6 9 29.94 1014 10 16.09344 0 0
10:55 pm 22:55 Partly Cloudy 72 22 70 21 94 94 SE 7 11 29.94 1014 10 16.09344 0 0
11:15 pm 23:15 Partly Cloudy 71 21.7 70 21 96 96 SSE 8 13 29.94 1014 10 16.09344 0 0
11:35 pm 23:35 Partly Cloudy 73 22.6 68 20.2 86 86 SSW 8 13 29.94 1014 10 16.09344 0 0
11:55 pm 23:55 Partly Cloudy 72 22.3 66 18.7 80 80 SW 3 6 29.91 1013 10 16.09344 0 0

Powered by AerisWeather